sat.trackr.live / text

‹ back to catalog

UFO 11 (USA 174)

NORAD 28117 · 2003-057A

PAYLOAD ACTIVE UNKNOWN

§ Identity

Operator
Country
US
Launch date
2003-12-18
Launch site
AFETR
Launch vehicle
Mass (kg)
RCS (m²)
10.00

Purposes: comms

External: N2YO · Heavens-Above · Gunter

§ Orbital elements

Epoch: 2026-09-19T20:45:07.067232Z

Period
1,436.10 min
Inclination
9.0344°
Eccentricity
0.0003854
Mean motion
1.00271463 rev/d
Perigee alt
35,770.4 km
Apogee alt
35,802.9 km
Semi-major
42,164.8 km
B*
0.0000e+0
RAAN
33.3130°
Arg perigee
160.4483°
Mean anomaly
191.7031°
Rev number
8,339

§ Raw data

UFO 11 (USA 174)1 28117U 03057A   26262.86466513 -.00000103  00000+0  00000+0 0  99942 28117   9.0344  33.3130 0003854 160.4483 191.7031  1.00271463 83399

JSON: /api/v1/satellites/28117 · /tle

For live sub-satellite position, see the globe view (requires WebGL).

§ Visibility from observer

Set your observer location to see the next 7 days of passes ≥ 10°. The values pass through the URL so the page stays shareable.

No JS? Fill the form by hand. The geolocation button needs JavaScript.

§ Radio — SatNOGS DB

ModeDescriptionDownlinkUplink
FM Mode U 262.325 MHz

1 transmitter · refreshed weekly from db.satnogs.org